Year,Month,Day,Hour,Minute,Value (Times are PST for temperature in C)
2013,07,16,00,00,17.70
2013,07,16,00,01,17.70
2013,07,16,00,02,17.60
2013,07,16,00,03,17.60
2013,07,16,00,04,17.60
2013,07,16,00,05,17.50
2013,07,16,00,06,17.50
2013,07,16,00,07,17.50
2013,07,16,00,08,17.50
2013,07,16,00,09,17.40
2013,07,16,00,10,17.40
2013,07,16,00,11,17.40
2013,07,16,00,12,17.30
2013,07,16,00,13,17.30
2013,07,16,00,14,17.30
2013,07,16,00,15,17.30
2013,07,16,00,16,17.30
2013,07,16,00,17,17.30
2013,07,16,00,18,17.30
2013,07,16,00,19,17.20
2013,07,16,00,20,17.20
2013,07,16,00,21,17.20
2013,07,16,00,22,17.10
2013,07,16,00,23,17.10
2013,07,16,00,24,17.10
2013,07,16,00,25,17.00
2013,07,16,00,26,17.00
2013,07,16,00,27,17.00
2013,07,16,00,28,17.00
2013,07,16,00,29,17.00
2013,07,16,00,30,16.90
2013,07,16,00,31,16.90
2013,07,16,00,32,16.90
2013,07,16,00,33,16.90
2013,07,16,00,34,16.90
2013,07,16,00,35,16.80
2013,07,16,00,36,16.80
2013,07,16,00,37,16.80
2013,07,16,00,38,16.70
2013,07,16,00,39,16.70
2013,07,16,00,40,16.70
2013,07,16,00,41,16.70
2013,07,16,00,42,16.70
2013,07,16,00,43,16.70
2013,07,16,00,44,16.70
2013,07,16,00,45,16.70
2013,07,16,00,46,16.70
2013,07,16,00,47,16.70
2013,07,16,00,48,16.70
2013,07,16,00,49,16.70
2013,07,16,00,50,16.70
2013,07,16,00,51,16.70
2013,07,16,00,52,16.70
2013,07,16,00,53,16.70
2013,07,16,00,54,16.70
2013,07,16,00,55,16.60
2013,07,16,00,56,16.60
2013,07,16,00,57,16.60
2013,07,16,00,58,16.60
2013,07,16,00,59,16.50
2013,07,16,01,00,16.40
2013,07,16,01,01,16.40
2013,07,16,01,02,16.40
2013,07,16,01,03,16.40
2013,07,16,01,04,16.40
2013,07,16,01,05,16.40
2013,07,16,01,06,16.40
2013,07,16,01,07,16.40
2013,07,16,01,08,16.40
2013,07,16,01,09,16.40
2013,07,16,01,10,16.50
2013,07,16,01,11,16.60
2013,07,16,01,12,16.60
2013,07,16,01,13,16.70
2013,07,16,01,14,16.70
2013,07,16,01,15,16.70
2013,07,16,01,16,16.80
2013,07,16,01,17,16.80
2013,07,16,01,18,16.80
2013,07,16,01,19,16.80
2013,07,16,01,20,16.80
2013,07,16,01,21,16.90
2013,07,16,01,22,16.90
2013,07,16,01,23,16.90
2013,07,16,01,24,16.90
2013,07,16,01,25,16.90
2013,07,16,01,26,16.90
2013,07,16,01,27,16.90
2013,07,16,01,28,16.80
2013,07,16,01,29,16.80
2013,07,16,01,30,16.70
2013,07,16,01,31,16.70
2013,07,16,01,32,16.60
2013,07,16,01,33,16.50
2013,07,16,01,34,16.40
2013,07,16,01,35,16.40
2013,07,16,01,36,16.30
2013,07,16,01,37,16.20
2013,07,16,01,38,16.20
2013,07,16,01,39,16.10
2013,07,16,01,40,16.10
2013,07,16,01,41,16.00
2013,07,16,01,42,15.90
2013,07,16,01,43,15.90
2013,07,16,01,44,15.80
2013,07,16,01,45,15.80
2013,07,16,01,46,15.80
2013,07,16,01,47,15.80
2013,07,16,01,48,15.80
2013,07,16,01,49,15.80
2013,07,16,01,50,15.80
2013,07,16,01,51,15.80
2013,07,16,01,52,15.90
2013,07,16,01,53,15.90
2013,07,16,01,54,15.90
2013,07,16,01,55,15.90
2013,07,16,01,56,16.00
2013,07,16,01,57,16.10
2013,07,16,01,58,16.10
2013,07,16,01,59,16.10
2013,07,16,02,00,16.10
2013,07,16,02,01,16.10
2013,07,16,02,02,16.00
2013,07,16,02,03,15.90
2013,07,16,02,04,15.90
2013,07,16,02,05,15.90
2013,07,16,02,06,15.80
2013,07,16,02,07,15.80
2013,07,16,02,08,15.80
2013,07,16,02,09,15.80
2013,07,16,02,10,15.80
2013,07,16,02,11,15.80
2013,07,16,02,12,15.80
2013,07,16,02,13,15.80
2013,07,16,02,14,15.70
2013,07,16,02,15,15.70
2013,07,16,02,16,15.60
2013,07,16,02,17,15.60
2013,07,16,02,18,15.60
2013,07,16,02,19,15.50
2013,07,16,02,20,15.50
2013,07,16,02,21,15.50
2013,07,16,02,22,15.50
2013,07,16,02,23,15.50
2013,07,16,02,24,15.50
2013,07,16,02,25,15.50
2013,07,16,02,26,15.50
2013,07,16,02,27,15.50
2013,07,16,02,28,15.50
2013,07,16,02,29,15.50
2013,07,16,02,30,15.50
2013,07,16,02,31,15.50
2013,07,16,02,32,15.60
2013,07,16,02,33,15.60
2013,07,16,02,34,15.60
2013,07,16,02,35,15.60
2013,07,16,02,36,15.60
2013,07,16,02,37,15.60
2013,07,16,02,38,15.70
2013,07,16,02,39,15.70
2013,07,16,02,40,15.70
2013,07,16,02,41,15.80
2013,07,16,02,42,15.80
2013,07,16,02,43,15.90
2013,07,16,02,44,15.90
2013,07,16,02,45,16.00
2013,07,16,02,46,16.10
2013,07,16,02,47,16.10
2013,07,16,02,48,16.20
2013,07,16,02,49,16.20
2013,07,16,02,50,16.20
2013,07,16,02,51,16.20
2013,07,16,02,52,16.20
2013,07,16,02,53,16.20
2013,07,16,02,54,16.10
2013,07,16,02,55,16.10
2013,07,16,02,56,16.10
2013,07,16,02,57,16.10
2013,07,16,02,58,15.90
2013,07,16,02,59,15.90
2013,07,16,03,00,15.80
2013,07,16,03,01,15.80
2013,07,16,03,02,15.70
2013,07,16,03,03,15.70
2013,07,16,03,04,15.60
2013,07,16,03,05,15.60
2013,07,16,03,06,15.50
2013,07,16,03,07,15.50
2013,07,16,03,08,15.50
2013,07,16,03,09,15.40
2013,07,16,03,10,15.40
2013,07,16,03,11,15.30
2013,07,16,03,12,15.30
2013,07,16,03,13,15.30
2013,07,16,03,14,15.30
2013,07,16,03,15,15.20
2013,07,16,03,16,15.20
2013,07,16,03,17,15.20
2013,07,16,03,18,15.10
2013,07,16,03,19,15.10
2013,07,16,03,20,15.10
2013,07,16,03,21,15.00
2013,07,16,03,22,15.00
2013,07,16,03,23,15.00
2013,07,16,03,24,15.00
2013,07,16,03,25,15.00
2013,07,16,03,26,15.00
2013,07,16,03,27,15.00
2013,07,16,03,28,15.00
2013,07,16,03,29,15.00
2013,07,16,03,30,15.00
2013,07,16,03,31,14.90
2013,07,16,03,32,14.90
2013,07,16,03,33,14.90
2013,07,16,03,34,14.90
2013,07,16,03,35,14.90
2013,07,16,03,36,14.90
2013,07,16,03,37,14.90
2013,07,16,03,38,14.90
2013,07,16,03,39,14.90
2013,07,16,03,40,14.90
2013,07,16,03,41,14.90
2013,07,16,03,42,14.90
2013,07,16,03,43,14.90
2013,07,16,03,44,14.90
2013,07,16,03,45,14.90
2013,07,16,03,46,14.80
2013,07,16,03,47,14.80
2013,07,16,03,48,14.80
2013,07,16,03,49,14.80
2013,07,16,03,50,14.80
2013,07,16,03,51,14.80
2013,07,16,03,52,14.80
2013,07,16,03,53,14.80
2013,07,16,03,54,14.70
2013,07,16,03,55,14.70
2013,07,16,03,56,14.70
2013,07,16,03,57,14.70
2013,07,16,03,58,14.70
2013,07,16,03,59,14.70
2013,07,16,04,00,14.70
2013,07,16,04,01,14.80
2013,07,16,04,02,14.80
2013,07,16,04,03,14.90
2013,07,16,04,04,14.90
2013,07,16,04,05,15.00
2013,07,16,04,06,15.00
2013,07,16,04,07,15.10
2013,07,16,04,08,15.20
2013,07,16,04,09,15.20
2013,07,16,04,10,15.30
2013,07,16,04,11,15.30
2013,07,16,04,12,15.30
2013,07,16,04,13,15.30
2013,07,16,04,14,15.30
2013,07,16,04,15,15.30
2013,07,16,04,16,15.30
2013,07,16,04,17,15.40
2013,07,16,04,18,15.40
2013,07,16,04,19,15.40
2013,07,16,04,20,15.40
2013,07,16,04,21,15.40
2013,07,16,04,22,15.50
2013,07,16,04,23,15.50
2013,07,16,04,24,15.50
2013,07,16,04,25,15.50
2013,07,16,04,26,15.60
2013,07,16,04,27,15.60
2013,07,16,04,28,15.60
2013,07,16,04,29,15.60
2013,07,16,04,30,15.70
2013,07,16,04,31,15.70
2013,07,16,04,32,15.70
2013,07,16,04,33,15.80
2013,07,16,04,34,15.80
2013,07,16,04,35,15.80
2013,07,16,04,36,15.80
2013,07,16,04,37,15.80
2013,07,16,04,38,15.80
2013,07,16,04,39,15.80
2013,07,16,04,40,15.80
2013,07,16,04,41,15.90
2013,07,16,04,42,15.90
2013,07,16,04,43,15.90
2013,07,16,04,44,16.00
2013,07,16,04,45,16.10
2013,07,16,04,46,16.10
2013,07,16,04,47,16.20
2013,07,16,04,48,16.20
2013,07,16,04,49,16.30
2013,07,16,04,50,16.30
2013,07,16,04,51,16.40
2013,07,16,04,52,16.40
2013,07,16,04,53,16.60
2013,07,16,04,54,16.60
2013,07,16,04,55,16.70
2013,07,16,04,56,16.70
2013,07,16,04,57,16.80
2013,07,16,04,58,16.90
2013,07,16,04,59,16.90
2013,07,16,05,00,17.00
2013,07,16,05,01,17.00
2013,07,16,05,02,17.10
2013,07,16,05,03,17.20
2013,07,16,05,04,17.30
2013,07,16,05,05,17.30
2013,07,16,05,06,17.30
2013,07,16,05,07,17.30
2013,07,16,05,08,17.30
2013,07,16,05,09,17.40
2013,07,16,05,10,17.40
2013,07,16,05,11,17.40
2013,07,16,05,12,17.50
2013,07,16,05,13,17.50
2013,07,16,05,14,17.50
2013,07,16,05,15,17.50
2013,07,16,05,16,17.50
2013,07,16,05,17,17.50
2013,07,16,05,18,17.50
2013,07,16,05,19,17.50
2013,07,16,05,20,17.50
2013,07,16,05,21,17.50
2013,07,16,05,22,17.50
2013,07,16,05,23,17.50
2013,07,16,05,24,17.50
2013,07,16,05,25,17.50
2013,07,16,05,26,17.50
2013,07,16,05,27,17.50
2013,07,16,05,28,17.50
2013,07,16,05,29,17.50
2013,07,16,05,30,17.50
2013,07,16,05,31,17.50
2013,07,16,05,32,17.40
2013,07,16,05,33,17.40
2013,07,16,05,34,17.40
2013,07,16,05,35,17.40
2013,07,16,05,36,17.40
2013,07,16,05,37,17.40
2013,07,16,05,38,17.40
2013,07,16,05,39,17.40
2013,07,16,05,40,17.40
2013,07,16,05,41,17.40
2013,07,16,05,42,17.40
2013,07,16,05,43,17.40
2013,07,16,05,44,17.40
2013,07,16,05,45,17.40
2013,07,16,05,46,17.40
2013,07,16,05,47,17.30
2013,07,16,05,48,17.30
2013,07,16,05,49,17.30
2013,07,16,05,50,17.30
2013,07,16,05,51,17.30
2013,07,16,05,52,17.30
2013,07,16,05,53,17.30
2013,07,16,05,54,17.30
2013,07,16,05,55,17.30
2013,07,16,05,56,17.30
2013,07,16,05,57,17.30
2013,07,16,05,58,17.30
2013,07,16,05,59,17.30
2013,07,16,06,00,17.30
2013,07,16,06,01,17.30
2013,07,16,06,02,17.30
2013,07,16,06,03,17.30
2013,07,16,06,04,17.30
2013,07,16,06,05,17.30
2013,07,16,06,06,17.30
2013,07,16,06,07,17.30
2013,07,16,06,08,17.30
2013,07,16,06,09,17.30
2013,07,16,06,10,17.30
2013,07,16,06,11,17.30
2013,07,16,06,12,17.30
2013,07,16,06,13,17.30
2013,07,16,06,14,17.30
2013,07,16,06,15,17.30
2013,07,16,06,16,17.30
2013,07,16,06,17,17.30
2013,07,16,06,18,17.40
2013,07,16,06,19,17.40
2013,07,16,06,20,17.40
2013,07,16,06,21,17.50
2013,07,16,06,22,17.50
2013,07,16,06,23,17.50
2013,07,16,06,24,17.60
2013,07,16,06,25,17.60
2013,07,16,06,26,17.60
2013,07,16,06,27,17.70
2013,07,16,06,28,17.70
2013,07,16,06,29,17.80
2013,07,16,06,30,17.90
2013,07,16,06,31,17.90
2013,07,16,06,32,17.90
2013,07,16,06,33,18.00
2013,07,16,06,34,18.10
2013,07,16,06,35,18.20
2013,07,16,06,36,18.20
2013,07,16,06,37,18.30
2013,07,16,06,38,18.40
2013,07,16,06,39,18.40
2013,07,16,06,40,18.50
2013,07,16,06,41,18.60
2013,07,16,06,42,18.60
2013,07,16,06,43,18.70
2013,07,16,06,44,18.80
2013,07,16,06,45,18.90
2013,07,16,06,46,18.90
2013,07,16,06,47,18.90
2013,07,16,06,48,18.90
2013,07,16,06,49,18.90
2013,07,16,06,50,18.90
2013,07,16,06,51,18.90
2013,07,16,06,52,18.90
2013,07,16,06,53,18.80
2013,07,16,06,54,18.70
2013,07,16,06,55,18.60
2013,07,16,06,56,18.60
2013,07,16,06,57,18.50
2013,07,16,06,58,18.40
2013,07,16,06,59,18.40
2013,07,16,07,00,18.40
2013,07,16,07,01,18.50
2013,07,16,07,02,18.50
2013,07,16,07,03,18.60
2013,07,16,07,04,18.70
2013,07,16,07,05,18.80
2013,07,16,07,06,18.90
2013,07,16,07,07,18.90
2013,07,16,07,08,19.10
2013,07,16,07,09,19.10
2013,07,16,07,10,19.10
2013,07,16,07,11,19.20
2013,07,16,07,12,19.20
2013,07,16,07,13,19.30
2013,07,16,07,14,19.30
2013,07,16,07,15,19.40
2013,07,16,07,16,19.40
2013,07,16,07,17,19.40
2013,07,16,07,18,19.50
2013,07,16,07,19,19.50
2013,07,16,07,20,19.50
2013,07,16,07,21,19.50
2013,07,16,07,22,19.50
2013,07,16,07,23,19.60
2013,07,16,07,24,19.60
2013,07,16,07,25,19.60
2013,07,16,07,26,19.60
2013,07,16,07,27,19.70
2013,07,16,07,28,19.70
2013,07,16,07,29,19.70
2013,07,16,07,30,19.70
2013,07,16,07,31,19.80
2013,07,16,07,32,19.80
2013,07,16,07,33,19.80
2013,07,16,07,34,19.80
2013,07,16,07,35,19.80
2013,07,16,07,36,19.80
2013,07,16,07,37,19.80
2013,07,16,07,38,19.90
2013,07,16,07,39,19.90
2013,07,16,07,40,19.90
2013,07,16,07,41,19.90
2013,07,16,07,42,19.90
2013,07,16,07,43,19.90
2013,07,16,07,44,20.00
2013,07,16,07,45,20.10
2013,07,16,07,46,20.10
2013,07,16,07,47,20.10
2013,07,16,07,48,20.10
2013,07,16,07,49,20.10
2013,07,16,07,50,20.20
2013,07,16,07,51,20.20
2013,07,16,07,52,20.20
2013,07,16,07,53,20.20
2013,07,16,07,54,20.20
2013,07,16,07,55,20.20
2013,07,16,07,56,20.20
2013,07,16,07,57,20.20
2013,07,16,07,58,20.30
2013,07,16,07,59,20.30
2013,07,16,08,00,20.30
2013,07,16,08,01,20.40
2013,07,16,08,02,20.40
2013,07,16,08,03,20.40
2013,07,16,08,04,20.50
2013,07,16,08,05,20.50
2013,07,16,08,06,20.50
2013,07,16,08,07,20.60
2013,07,16,08,08,20.60
2013,07,16,08,09,20.60
2013,07,16,08,10,20.70
2013,07,16,08,11,20.70
2013,07,16,08,12,20.70
2013,07,16,08,13,20.70
2013,07,16,08,14,20.80
2013,07,16,08,15,20.80
2013,07,16,08,16,20.80
2013,07,16,08,17,20.80
2013,07,16,08,18,20.90
2013,07,16,08,19,20.90
2013,07,16,08,20,20.90
2013,07,16,08,21,20.90
2013,07,16,08,22,20.90
2013,07,16,08,23,21.00
2013,07,16,08,24,21.00
2013,07,16,08,25,21.10
2013,07,16,08,26,21.10
2013,07,16,08,27,21.10
2013,07,16,08,28,21.10
2013,07,16,08,29,21.10
2013,07,16,08,30,21.10
2013,07,16,08,31,21.20
2013,07,16,08,32,21.20
2013,07,16,08,33,21.20
2013,07,16,08,34,21.20
2013,07,16,08,35,21.20
2013,07,16,08,36,21.20
2013,07,16,08,37,21.20
2013,07,16,08,38,21.20
2013,07,16,08,39,21.30
2013,07,16,08,40,21.30
2013,07,16,08,41,21.30
2013,07,16,08,42,21.40
2013,07,16,08,43,21.40
2013,07,16,08,44,21.50
2013,07,16,08,45,21.60
2013,07,16,08,46,21.60
2013,07,16,08,47,21.60
2013,07,16,08,48,21.60
2013,07,16,08,49,21.60
2013,07,16,08,50,21.60
2013,07,16,08,51,21.60
2013,07,16,08,52,21.60
2013,07,16,08,53,21.60
2013,07,16,08,54,21.60
2013,07,16,08,55,21.60
2013,07,16,08,56,21.60
2013,07,16,08,57,21.60
2013,07,16,08,58,21.60
2013,07,16,08,59,21.70
2013,07,16,09,00,21.70
2013,07,16,09,01,21.80
2013,07,16,09,02,21.90
2013,07,16,09,03,22.00
2013,07,16,09,04,22.00
2013,07,16,09,05,22.10
2013,07,16,09,06,22.20
2013,07,16,09,07,22.20
2013,07,16,09,08,22.30
2013,07,16,09,09,22.30
2013,07,16,09,10,22.30
2013,07,16,09,11,22.40
2013,07,16,09,12,22.40
2013,07,16,09,13,22.50
2013,07,16,09,14,22.50
2013,07,16,09,15,22.50
2013,07,16,09,16,22.50
2013,07,16,09,17,22.50
2013,07,16,09,18,22.50
2013,07,16,09,19,22.50
2013,07,16,09,20,22.50
2013,07,16,09,21,22.50
2013,07,16,09,22,22.50
2013,07,16,09,23,22.40
2013,07,16,09,24,22.40
2013,07,16,09,25,22.40
2013,07,16,09,26,22.40
2013,07,16,09,27,22.50
2013,07,16,09,28,22.50
2013,07,16,09,29,22.50
2013,07,16,09,30,22.50
2013,07,16,09,31,22.50
2013,07,16,09,32,22.50
2013,07,16,09,33,22.60
2013,07,16,09,34,22.60
2013,07,16,09,35,22.70
2013,07,16,09,36,22.70
2013,07,16,09,37,22.70
2013,07,16,09,38,22.70
2013,07,16,09,39,22.70
2013,07,16,09,40,22.70
2013,07,16,09,41,22.70
2013,07,16,09,42,22.70
2013,07,16,09,43,22.80
2013,07,16,09,44,22.90
2013,07,16,09,45,22.90
2013,07,16,09,46,22.90
2013,07,16,09,47,22.90
2013,07,16,09,48,22.90
2013,07,16,09,49,22.90
2013,07,16,09,50,22.90
2013,07,16,09,51,22.90
2013,07,16,09,52,22.90
2013,07,16,09,53,22.90
2013,07,16,09,54,22.90
2013,07,16,09,55,22.90
2013,07,16,09,56,23.00
2013,07,16,09,57,23.10
2013,07,16,09,58,23.10
2013,07,16,09,59,23.20
2013,07,16,10,00,23.30
2013,07,16,10,01,23.30
2013,07,16,10,02,23.30
2013,07,16,10,03,23.40
2013,07,16,10,04,23.40
2013,07,16,10,05,23.40
2013,07,16,10,06,23.50
2013,07,16,10,07,23.60
2013,07,16,10,08,23.70
2013,07,16,10,09,23.70
2013,07,16,10,10,23.80
2013,07,16,10,11,23.90
2013,07,16,10,12,23.90
2013,07,16,10,13,24.00
2013,07,16,10,14,24.10
2013,07,16,10,15,24.10
2013,07,16,10,16,24.10
2013,07,16,10,17,24.10
2013,07,16,10,18,24.00
2013,07,16,10,19,23.90
2013,07,16,10,20,23.90
2013,07,16,10,21,23.90
2013,07,16,10,22,24.10
2013,07,16,10,23,24.10
2013,07,16,10,24,24.10
2013,07,16,10,25,24.10
2013,07,16,10,26,24.10
2013,07,16,10,27,24.10
2013,07,16,10,28,24.10
2013,07,16,10,29,24.20
2013,07,16,10,30,24.20
2013,07,16,10,31,24.20
2013,07,16,10,32,24.30
2013,07,16,10,33,24.20
2013,07,16,10,34,24.30
2013,07,16,10,35,24.30
2013,07,16,10,36,24.40
2013,07,16,10,37,24.40
2013,07,16,10,38,24.40
2013,07,16,10,39,24.40
2013,07,16,10,40,24.50
2013,07,16,10,41,24.50
2013,07,16,10,42,24.50
2013,07,16,10,43,24.60
2013,07,16,10,44,24.60
2013,07,16,10,45,24.60
2013,07,16,10,46,24.60
2013,07,16,10,47,24.70
2013,07,16,10,48,24.70
2013,07,16,10,49,24.80
2013,07,16,10,50,24.80
2013,07,16,10,51,24.90
2013,07,16,10,52,24.90
2013,07,16,10,53,24.90
2013,07,16,10,54,24.90
2013,07,16,10,55,24.90
2013,07,16,10,56,24.90
2013,07,16,10,57,24.90
2013,07,16,10,58,25.00
2013,07,16,10,59,25.10
2013,07,16,11,00,25.20
2013,07,16,11,01,25.30
2013,07,16,11,02,25.30
2013,07,16,11,03,25.30
2013,07,16,11,04,25.30
2013,07,16,11,05,25.30
2013,07,16,11,06,25.40
2013,07,16,11,07,25.40
2013,07,16,11,08,25.50
2013,07,16,11,09,25.50
2013,07,16,11,10,25.60
2013,07,16,11,11,25.60
2013,07,16,11,12,25.50
2013,07,16,11,13,25.50
2013,07,16,11,14,25.60
2013,07,16,11,15,25.60
2013,07,16,11,16,25.60
2013,07,16,11,17,25.60
2013,07,16,11,18,25.70
2013,07,16,11,19,25.70
2013,07,16,11,20,25.70
2013,07,16,11,21,25.70
2013,07,16,11,22,25.70
2013,07,16,11,23,25.70
2013,07,16,11,24,25.80
2013,07,16,11,25,25.90
2013,07,16,11,26,25.90
2013,07,16,11,27,26.00
2013,07,16,11,28,26.00
2013,07,16,11,29,26.00
2013,07,16,11,30,26.00
2013,07,16,11,31,26.10
2013,07,16,11,32,26.10
2013,07,16,11,33,26.00
2013,07,16,11,34,26.00
2013,07,16,11,35,25.90
2013,07,16,11,36,25.90
2013,07,16,11,37,25.90
2013,07,16,11,38,25.90
2013,07,16,11,39,25.90
2013,07,16,11,40,25.80
2013,07,16,11,41,25.80
2013,07,16,11,42,25.90
2013,07,16,11,43,25.90
2013,07,16,11,44,25.90
2013,07,16,11,45,25.90
2013,07,16,11,46,25.90
2013,07,16,11,47,25.90
2013,07,16,11,48,25.90
2013,07,16,11,49,25.90
2013,07,16,11,50,26.00
2013,07,16,11,51,26.10
2013,07,16,11,52,26.20
2013,07,16,11,53,26.30
2013,07,16,11,54,26.30
2013,07,16,11,55,26.20
2013,07,16,11,56,26.30
2013,07,16,11,57,26.30
2013,07,16,11,58,26.30
2013,07,16,11,59,26.30
2013,07,16,12,00,26.30
2013,07,16,12,01,26.40
2013,07,16,12,02,26.40
2013,07,16,12,03,26.50
2013,07,16,12,04,26.60
2013,07,16,12,05,26.60
2013,07,16,12,06,26.60
2013,07,16,12,07,26.50
2013,07,16,12,08,26.40
2013,07,16,12,09,26.40
2013,07,16,12,10,26.40
2013,07,16,12,11,26.40
2013,07,16,12,12,26.40
2013,07,16,12,13,26.30
2013,07,16,12,14,26.30
2013,07,16,12,15,26.20
2013,07,16,12,16,26.20
2013,07,16,12,17,26.30
2013,07,16,12,18,26.30
2013,07,16,12,19,26.40
2013,07,16,12,20,26.40
2013,07,16,12,21,26.50
2013,07,16,12,22,26.60
2013,07,16,12,23,26.60
2013,07,16,12,24,26.60
2013,07,16,12,25,26.60
2013,07,16,12,26,26.60
2013,07,16,12,27,26.60
2013,07,16,12,28,26.60
2013,07,16,12,29,26.60
2013,07,16,12,30,26.70
2013,07,16,12,31,26.60
2013,07,16,12,32,26.70
2013,07,16,12,33,26.70
2013,07,16,12,34,26.80
2013,07,16,12,35,26.90
2013,07,16,12,36,26.80
2013,07,16,12,37,26.80
2013,07,16,12,38,26.80
2013,07,16,12,39,26.80
2013,07,16,12,40,26.80
2013,07,16,12,41,26.80
2013,07,16,12,42,26.80
2013,07,16,12,43,26.70
2013,07,16,12,44,26.60
2013,07,16,12,45,26.60
2013,07,16,12,46,26.60
2013,07,16,12,47,26.60
2013,07,16,12,48,26.60
2013,07,16,12,49,26.60
2013,07,16,12,50,26.60
2013,07,16,12,51,26.60
2013,07,16,12,52,26.60
2013,07,16,12,53,26.60
2013,07,16,12,54,26.60
2013,07,16,12,55,26.60
2013,07,16,12,56,26.60
2013,07,16,12,57,26.60
2013,07,16,12,58,26.70
2013,07,16,12,59,26.70
2013,07,16,13,00,26.70
2013,07,16,13,01,26.80
2013,07,16,13,02,26.80
2013,07,16,13,03,26.80
2013,07,16,13,04,26.80
2013,07,16,13,05,26.80
2013,07,16,13,06,26.80
2013,07,16,13,07,26.80
2013,07,16,13,08,26.80
2013,07,16,13,09,26.70
2013,07,16,13,10,26.70
2013,07,16,13,11,26.70
2013,07,16,13,12,26.70
2013,07,16,13,13,26.70
2013,07,16,13,14,26.80
2013,07,16,13,15,26.80
2013,07,16,13,16,26.70
2013,07,16,13,17,26.70
2013,07,16,13,18,26.60
2013,07,16,13,19,26.60
2013,07,16,13,20,26.60
2013,07,16,13,21,26.70
2013,07,16,13,22,26.80
2013,07,16,13,23,26.80
2013,07,16,13,24,26.80
2013,07,16,13,25,26.80
2013,07,16,13,26,26.80
2013,07,16,13,27,26.80
2013,07,16,13,28,26.80
2013,07,16,13,29,26.80
2013,07,16,13,30,26.80
2013,07,16,13,31,26.80
2013,07,16,13,32,26.80
2013,07,16,13,33,26.80
2013,07,16,13,34,26.70
2013,07,16,13,35,26.70
2013,07,16,13,36,26.70
2013,07,16,13,37,26.70
2013,07,16,13,38,26.60
2013,07,16,13,39,26.60
2013,07,16,13,40,26.70
2013,07,16,13,41,26.70
2013,07,16,13,42,26.70
2013,07,16,13,43,26.70
2013,07,16,13,44,26.70
2013,07,16,13,45,26.80
2013,07,16,13,46,26.80
2013,07,16,13,47,26.80
2013,07,16,13,48,26.80
2013,07,16,13,49,26.80
2013,07,16,13,50,26.80
2013,07,16,13,51,26.90
2013,07,16,13,52,26.90
2013,07,16,13,53,27.00
2013,07,16,13,54,27.10
2013,07,16,13,55,27.10
2013,07,16,13,56,27.20
2013,07,16,13,57,27.20
2013,07,16,13,58,27.20
2013,07,16,13,59,27.20
2013,07,16,14,00,27.20
2013,07,16,14,01,27.20
2013,07,16,14,02,27.20
2013,07,16,14,03,27.30
2013,07,16,14,04,27.30
2013,07,16,14,05,27.30
2013,07,16,14,06,27.30
2013,07,16,14,07,27.30
2013,07,16,14,08,27.30
2013,07,16,14,09,27.30
2013,07,16,14,10,27.30
2013,07,16,14,11,27.30
2013,07,16,14,12,27.30
2013,07,16,14,13,27.30
2013,07,16,14,14,27.30
2013,07,16,14,15,27.30
2013,07,16,14,16,27.30
2013,07,16,14,17,27.30
2013,07,16,14,18,27.30
2013,07,16,14,19,27.30
2013,07,16,14,20,27.30
2013,07,16,14,21,27.30
2013,07,16,14,22,27.30
2013,07,16,14,23,27.30
2013,07,16,14,24,27.30
2013,07,16,14,25,27.30
2013,07,16,14,26,27.30
2013,07,16,14,27,27.30
2013,07,16,14,28,27.30
2013,07,16,14,29,27.30
2013,07,16,14,30,27.30
2013,07,16,14,31,27.20
2013,07,16,14,32,27.20
2013,07,16,14,33,27.20
2013,07,16,14,34,27.20
2013,07,16,14,35,27.20
2013,07,16,14,36,27.20
2013,07,16,14,37,27.30
2013,07,16,14,38,27.30
2013,07,16,14,39,27.30
2013,07,16,14,40,27.20
2013,07,16,14,41,27.20
2013,07,16,14,42,27.20
2013,07,16,14,43,27.20
2013,07,16,14,44,27.20
2013,07,16,14,45,27.20
2013,07,16,14,46,27.20
2013,07,16,14,47,27.20
2013,07,16,14,48,27.20
2013,07,16,14,49,27.20
2013,07,16,14,50,27.20
2013,07,16,14,51,27.20
2013,07,16,14,52,27.20
2013,07,16,14,53,27.20
2013,07,16,14,54,27.20
2013,07,16,14,55,27.20
2013,07,16,14,56,27.20
2013,07,16,14,57,27.20
2013,07,16,14,58,27.20
2013,07,16,14,59,27.20
2013,07,16,15,00,27.20
2013,07,16,15,01,27.20
2013,07,16,15,02,27.20
2013,07,16,15,03,27.20
2013,07,16,15,04,27.20
2013,07,16,15,05,27.20
2013,07,16,15,06,27.30
2013,07,16,15,07,27.30
2013,07,16,15,08,27.30
2013,07,16,15,09,27.30
2013,07,16,15,10,27.30
2013,07,16,15,11,27.30
2013,07,16,15,12,27.30
2013,07,16,15,13,27.30
2013,07,16,15,14,27.30
2013,07,16,15,15,27.30
2013,07,16,15,16,27.30
2013,07,16,15,17,27.30
2013,07,16,15,18,27.30
2013,07,16,15,19,27.40
2013,07,16,15,20,27.60
2013,07,16,15,21,27.70
2013,07,16,15,22,27.70
2013,07,16,15,23,27.80
2013,07,16,15,24,27.90
2013,07,16,15,25,28.00
2013,07,16,15,26,28.00
2013,07,16,15,27,28.10
2013,07,16,15,28,28.20
2013,07,16,15,29,28.40
2013,07,16,15,30,28.50
2013,07,16,15,31,28.60
2013,07,16,15,32,28.60
2013,07,16,15,33,28.70
2013,07,16,15,34,28.70
2013,07,16,15,35,28.70
2013,07,16,15,36,28.80
2013,07,16,15,37,28.80
2013,07,16,15,38,28.90
2013,07,16,15,39,28.90
2013,07,16,15,40,28.90
2013,07,16,15,41,28.70
2013,07,16,15,42,28.50
2013,07,16,15,43,28.20
2013,07,16,15,44,28.00
2013,07,16,15,45,27.90
2013,07,16,15,46,27.70
2013,07,16,15,47,27.70
2013,07,16,15,48,27.70
2013,07,16,15,49,27.70
2013,07,16,15,50,27.70
2013,07,16,15,51,27.80
2013,07,16,15,52,27.90
2013,07,16,15,53,28.10
2013,07,16,15,54,28.20
2013,07,16,15,55,28.30
2013,07,16,15,56,28.40
2013,07,16,15,57,28.50
2013,07,16,15,58,28.60
2013,07,16,15,59,28.60
2013,07,16,16,00,28.60
2013,07,16,16,01,28.60
2013,07,16,16,02,28.60
2013,07,16,16,03,28.60
2013,07,16,16,04,28.60
2013,07,16,16,05,28.70
2013,07,16,16,06,28.70
2013,07,16,16,07,28.70
2013,07,16,16,08,28.80
2013,07,16,16,09,28.80
2013,07,16,16,10,28.80
2013,07,16,16,11,28.70
2013,07,16,16,12,28.60
2013,07,16,16,13,28.40
2013,07,16,16,14,28.30
2013,07,16,16,15,28.20
2013,07,16,16,16,28.20
2013,07,16,16,17,28.10
2013,07,16,16,18,28.10
2013,07,16,16,19,28.10
2013,07,16,16,20,28.10
2013,07,16,16,21,28.10
2013,07,16,16,22,28.20
2013,07,16,16,23,28.30
2013,07,16,16,24,28.40
2013,07,16,16,25,28.40
2013,07,16,16,26,28.50
2013,07,16,16,27,28.60
2013,07,16,16,28,28.60
2013,07,16,16,29,28.70
2013,07,16,16,30,28.60
2013,07,16,16,31,28.60
2013,07,16,16,32,28.60
2013,07,16,16,33,28.40
2013,07,16,16,34,28.40
2013,07,16,16,35,28.30
2013,07,16,16,36,28.30
2013,07,16,16,37,28.30
2013,07,16,16,38,28.20
2013,07,16,16,39,28.10
2013,07,16,16,40,28.00
2013,07,16,16,41,28.00
2013,07,16,16,42,28.00
2013,07,16,16,43,27.90
2013,07,16,16,44,27.90
2013,07,16,16,45,27.90
2013,07,16,16,46,27.90
2013,07,16,16,47,27.90
2013,07,16,16,48,27.90
2013,07,16,16,49,27.90
2013,07,16,16,50,27.90
2013,07,16,16,51,27.90
2013,07,16,16,52,27.90
2013,07,16,16,53,27.90
2013,07,16,16,54,27.90
2013,07,16,16,55,27.90
2013,07,16,16,56,28.00
2013,07,16,16,57,28.00
2013,07,16,16,58,28.00
2013,07,16,16,59,28.00
2013,07,16,17,00,28.00
2013,07,16,17,01,28.00
2013,07,16,17,02,27.90
2013,07,16,17,03,27.90
2013,07,16,17,04,27.90
2013,07,16,17,05,27.90
2013,07,16,17,06,27.90
2013,07,16,17,07,27.90
2013,07,16,17,08,27.90
2013,07,16,17,09,27.90
2013,07,16,17,10,27.90
2013,07,16,17,11,27.90
2013,07,16,17,12,27.80
2013,07,16,17,13,27.80
2013,07,16,17,14,27.80
2013,07,16,17,15,27.70
2013,07,16,17,16,27.70
2013,07,16,17,17,27.70
2013,07,16,17,18,27.70
2013,07,16,17,19,27.60